Location: Malvern Link
(52.1333°N, 2.3000°W)
Time: 15:53:18
(UTC+00:00)

Cosmos 1634 Rocket - Pass Details

Date: 05 December 2021
Orbit: 959 x 993 km, 82.9° (Epoch: 23 January)

Event Time Altitude Azimuth Distance (km) Brightness Sun altitude
Rises 18:00:48 0° 191° (SSW) 3,695 7.4 -17.7°
Reaches altitude 10° 18:03:19 10° 193° (SSW) 2,752 6.7 -18.0°
Maximum altitude 18:09:39 80° 281° (W) 1,014 4.1 -19.0°
Drops below altitude 10° 18:16:02 10° 9° (N) 2,766 6.2 -20.0°
Sets 18:18:34 0° 10° (N) 3,716 6.8 -20.3°
